Location: Al Ba?al?yah
(25.1044°N, 32.7916°E)
Time: 14:32:54
(UTC+00:00)

Daily predictions for brighter satellites

Satellite Brightness Start Highest point End
(mag) Time Altitude Azimuth Time Altitude Azimuth Time Altitude Azimuth
IRS-1C Rocket 4.1 16:40:12 10° SSE 16:45:27 78° ENE 16:50:42 10° N
Cosmos 1437 Rocket 4.1 16:43:21 10° SE 16:46:08 19° E 16:48:58 10° NE
Meteor 2-16 Rocket 4.5 16:40:08 10° N 16:46:16 78° E 16:52:22 10° S
Cosmos 1763 Rocket 4.2 16:44:02 10° NNW 16:49:03 58° WSW 16:54:06 10° S
CZ-2C R/B 3.3 16:47:13 10° N 16:52:36 63° WNW 16:58:05 10° SSW
Cosmos 1862 4.3 16:49:46 10° NNE 16:53:15 28° E 16:56:43 10° SE
FALCON 9 DEB 3.1 16:50:34 10° NW 16:53:59 83° SW 16:57:23 10° SE
DMSP B5D2-2 4.1 16:49:02 10° NNE 16:54:18 72° ESE 16:59:34 10° S
USA 267 3.9 16:48:33 10° ESE 16:54:39 42° NE 17:00:45 10° NNW
Cosmos 921 Rocket 3.4 16:50:51 10° N 16:54:49 41° ENE 16:58:45 10° SE
Meteor 2-15 4.4 16:49:57 10° S 16:56:00 86° E 17:02:04 10° N
Cosmos 1844 Rocket 2.7 16:52:13 10° SSW 16:57:46 85° ESE 17:03:20 10° NNE
Cosmos 841 Rocket 3.4 16:54:14 10° N 16:59:21 71° ENE 17:04:27 10° SSE
ASTRO E2 3.3 16:56:34 10° WNW 17:00:26 49° NNE 17:04:18 10° E
GPS 2-17 Rocket1 3.8 16:56:09 10° WSW 17:00:32 38° S 17:04:44 11° ESE
Cosmos 1842 Rocket 3.7 16:56:23 10° S 17:00:51 85° W 17:05:20 10° N
USA 186 3.2 17:00:32 12° ESE 17:01:36 14° ENE 17:03:02 10° NE
CSL-04 Debris 4.3 16:57:45 10° SSE 17:03:04 58° ENE 17:08:22 10° N
Mugunghwa Rocket 4.1 16:58:54 10° SW 17:05:00 54° SSE 17:11:25 10° E
Cosmos 1408 Rocket 3.8 17:00:44 10° N 17:05:02 51° E 17:09:22 10° SSE
Cosmos 1606 2.8 17:04:38 10° S 17:08:17 52° E 17:11:57 10° NNE
Cosmos 1174 3.2 17:06:29 10° NNW 17:09:41 75° WSW 17:12:37 10° SSE
Geosat 4.0 17:05:39 10° SSE 17:10:39 79° ENE 17:15:40 10° NNW
H-2A R/B 3.5 17:06:36 10° SSW 17:11:06 37° W 17:15:38 10° NNW
Cosmos 1943 3.2 17:05:44 10° NNW 17:11:24 87° ENE 17:17:04 10° SSE
Cosmos 2208 Rocket 4.4 17:06:21 10° N 17:11:37 49° ENE 17:16:40 11° SSE
Cosmos 1689 Rocket 3.9 17:09:28 10° N 17:12:01 33° WNW 17:14:33 10° SW
GEOS 3 Rocket 3.7 17:06:41 10° SE 17:12:01 78° ENE 17:17:25 10° NNW
GPS 2-04 Rocket1 4.1 17:10:35 10° W 17:14:29 39° NNW 17:18:21 10° NE
Cosmos 1242 Rocket 4.0 17:15:06 17° ESE 17:15:53 18° E 17:18:25 10° NE
CSL-04 Rocket 3.6 17:10:44 10° SSE 17:15:58 72° ENE 17:21:16 10° N
MetOp-A 4.4 17:12:48 10° SSE 17:17:54 47° ENE 17:23:00 10° N
MOS 1-B Rocket 4.1 17:12:04 10° NNE 17:18:43 58° E 17:24:30 10° S
ASC 2 Rocket 4.5 17:12:45 10° W 17:20:21 48° SSW 17:24:19 18° SE
ERS-2 2.5 17:17:20 10° N 17:20:56 67° WNW 17:24:30 10° SSW
SJ-6B 3.8 17:19:25 19° ESE 17:21:15 28° ENE 17:24:35 10° NNE
Lacrosse 5 rocket 3.9 17:18:25 10° WNW 17:21:30 19° WSW 17:24:39 10° SSW
Cosmos 1503 Rocket 4.0 17:17:18 10° S 17:22:19 56° ESE 17:27:22 10° NNE
OAO 3 Rocket 3.5 17:21:32 10° SW 17:25:52 40° SSE 17:28:54 18° E
ATLAS 5 CENTAUR R/B 4.5 17:23:49 10° NNE 17:25:56 12° NE 17:28:08 10° ENE
FALCON 9 DEB 4.5 17:24:02 10° N 17:26:24 21° NE 17:27:12 19° ENE
Cosmos 1844 4.2 17:21:43 10° SSW 17:27:25 64° WNW 17:33:04 10° N
Delta 2 Rocket 4.0 17:22:22 10° WSW 17:27:41 73° NNW 17:32:25 10° ENE
Cosmos 2221 4.3 17:24:49 10° SSW 17:28:41 33° W 17:32:36 10° NNW
Ariane Rocket 4.0 17:30:19 21° ESE 17:32:16 27° ENE 17:36:29 10° NNE
H-2A R/B 0.0 17:30:32 10° WNW 17:32:25 88° SSW 17:33:02 42° ESE
Delta 202 4.3 17:29:14 10° WSW 17:34:21 35° S 17:36:37 25° SE
Cosmos 1743 Rocket 3.5 17:34:55 10° N 17:39:15 67° E 17:41:59 22° SSE
FALCON 9 DEB 4.5 17:37:29 10° N 17:39:54 21° NE 17:40:05 21° NE
Intercosmos 24 3.9 17:36:32 10° S 17:40:58 55° E 17:44:31 10° NNE
Tianhe-1 3.1 17:39:30 10° SSW 17:40:26 16° S 17:40:26 16° S
Cosmos 1745 Rocket 4.4 17:38:22 10° NNE 17:44:05 40° E 17:46:37 28° SE
NOSS 3-3 (A) 3.8 17:39:41 10° SSW 17:45:07 80° WNW 17:51:04 10° NNE
NOSS 3-3 (C) 3.8 17:39:46 10° SSW 17:45:13 80° WNW 17:51:11 10° NNE
SL-4 R/B 3.3 17:45:06 10° NNW 17:49:08 32° NE 17:50:25 27° ENE
GPS 2-18 Rocket1 3.4 17:46:13 10° WSW 17:49:44 42° S 17:49:54 41° S
Cosmos 1500 Rocket 3.5 17:45:44 10° N 17:50:05 85° W 17:52:44 23° S
S3M 4.0 17:46:13 10° S 17:52:36 87° E 17:58:58 10° N
Cosmos 1354 Rocket 4.1 17:50:10 10° SSW 17:55:22 77° WNW 18:00:36 10° N
Cosmos 2315 Rocket 4.3 17:55:40 30° SE 17:58:15 45° E 18:04:16 10° NNE
Meteor 1-26 Rocket 4.3 17:55:46 25° SSE 17:59:01 56° E 18:04:30 10° NNE
IRS-1A Rocket 4.3 18:00:03 35° SE 18:02:25 64° ENE 18:08:10 10° N
Helios 1A Rocket 4.4 17:59:23 12° SSW 18:02:51 35° W 18:06:39 10° NNW
OBJECT-B 1.6 18:07:32 43° SW 18:07:56 46° W 18:11:04 10° NNW
Sich 1 3.0 18:09:10 10° N 18:13:17 64° ENE 18:13:17 64° ENE
FALCON 9 DEB 4.3 18:10:40 10° NW 18:12:36 35° NNW 18:12:36 35° NNW
Delta 198 4.5 18:06:48 10° W 18:13:44 84° S 18:16:25 40° E
SPOT 3 Rocket 4.2 18:16:15 37° ENE 18:16:15 37° ENE 18:20:39 10° N
Cosmos 1151 Rocket 2.9 18:19:35 78° NE 18:19:35 78° NE 18:23:43 10° N
Resurs 01 Rocket 2.3 18:24:41 42° NE 18:24:41 42° NE 18:28:01 10° N
Meteor 1-20 Rocket 4.0 18:29:04 10° N 18:34:36 86° W 18:35:07 74° S
Cosmos 2278 Rocket 2.1 18:35:39 55° SSW 18:36:58 86° WNW 18:42:39 10° NNE
USA 267 4.2 18:35:03 28° SSW 18:37:31 38° SW 18:43:31 10° WNW
ASTRO E2 4.5 18:37:01 10° W 18:39:04 27° W 18:39:04 27° W
Cosmos 1782 4.3 18:46:42 35° WNW 18:46:42 35° WNW 18:49:48 10° NNW
CZ-4C R/B 4.0 18:51:22 10° N 18:58:18 33° ENE 18:58:36 33° ENE
Mugunghwa Rocket 4.0 18:54:11 10° W 19:00:27 83° NW 19:00:27 83° NW
ATLAS 5 CENTAUR R/B 2.7 19:04:46 10° NNW 19:10:14 70° N 19:10:14 70° N
Cosmos 1833 Rocket 4.2 19:22:34 10° N 19:25:22 28° N 19:25:22 28° N
Milstar 3 3.5 19:21:01 10° W 19:35:36 77° N 19:37:11 65° NE
SJ 16-02 4.2 19:42:36 15° NNW 19:42:36 15° NNW 19:43:36 10° NNW
Cosmos 2082 Rocket 4.4 20:02:21 10° N 20:03:59 20° N 20:03:59 20° N
CZ-4C R/B 4.3 20:39:21 10° NW 20:43:47 34° WNW 20:43:47 34° WNW
USA 281 4.4 23:36:59 35° N 23:36:59 35° N 23:40:32 10° NNW
Lacrosse 4 Rocket 4.3 23:52:14 16° NNE 23:52:14 16° NNE 23:53:08 10° NNE
